Location: Unspecified
(47.9110°N, 14.3980°E)
Time: 16:37:48
(UTC+00:00)

Cosmos 405 Rocket - Pass Details

Date: 06 August 2020
Orbit: 490 x 553 km, 81.3° (Epoch: 19 September)

Event Time Altitude Azimuth Distance (km) Brightness Sun altitude
Exits shadow 21:16:33 68° 223° (SW) 536 2.6 -21.0°
Maximum altitude 21:16:57 78° 282° (WNW) 510 2.6 -21.1°
Drops below altitude 10° 21:20:40 10° 9° (N) 1,704 6.0 -21.4°
Sets 21:22:49 0° 11° (N) 2,599 7.1 -21.5°
